Pine Galaxy — C6TT5 — position and weather

sailwx.info

Track history (hours):
 
Tides and Currents Weather Stations Pressure Air Temp Water Temp Dewpoint Dewpoint Depression Visibility Wind Speed Wind Dir Waves Ship Positions

Pine Galaxy

Last reported at 2014-Oct-21 03:32 UTC. Time now 2014-Oct-21 13:37 UTC.
Position N 01°15' E 103°42'.

Length 147 m; draft 6.9 m.

Type: Tanker. MMSI: 311772000.

Date/timePositionNaut miles runAvg speedWind from/ knotsBaromVisibWave heightAir tempDewpointWater temp
2014-Oct-21 03:32N 01°15' E 103°42'1 0.0
2014-Oct-20 02:14N 01°15' E 103°43'2 0.3
2014-Oct-19 19:20N 01°16' E 103°45'2 0.1
2014-Oct-18 16:18N 01°18' E 103°44'1 1.4
2014-Oct-18 15:33N 01°17' E 103°45'6 1.0
2014-Oct-18 09:13N 01°13' E 103°40'4 5.2
2014-Oct-18 08:33N 01°10' E 103°41'6 5.6
2014-Oct-18 07:33N 01°10' E 103°47'8 7.6
2014-Oct-18 06:33N 01°13' E 103°54'7 7.0
2014-Oct-18 05:33N 01°16' E 104°00'7 7.2
2014-Oct-18 04:33N 01°17' E 104°08'  
2014-Oct-13 01:21N 22°17' E 114°06'33312.9
2014-Oct-11 23:33N 22°38' E 120°05'6 6.1
2014-Oct-11 22:33N 22°40' E 120°12'7 6.6
2014-Oct-11 21:33N 22°36' E 120°17'1 0.6
2014-Oct-11 19:16N 22°35' E 120°18'0 0.0
2014-Oct-11 18:16N 22°35' E 120°18'0 0.0
2014-Oct-11 13:10N 22°35' E 120°18'0 0.0
2014-Oct-11 08:16N 22°35' E 120°18'0 0.0
2014-Oct-11 07:28N 22°35' E 120°18'0 0.0
2014-Oct-11 06:10N 22°35' E 120°18'0 0.0
2014-Oct-11 05:28N 22°35' E 120°18'  
Track history (hours):
 
Tides and Currents Weather Stations Pressure Air Temp Water Temp Dewpoint Dewpoint Depression Visibility Wind Speed Wind Dir Waves Ship Positions

Pine Galaxy

Last reported at 2014-Oct-21 03:32 UTC. Time now 2014-Oct-21 13:37 UTC.
Position N 01°15' E 103°42'.

Length 147 m; draft 6.9 m.

Type: Tanker. MMSI: 311772000.

Date/timePositionNaut miles runAvg speedWind from/ knotsBaromVisibWave heightAir tempDewpointWater temp
2014-Oct-21 03:32N 01°15' E 103°42'1 0.0
2014-Oct-20 02:14N 01°15' E 103°43'2 0.3
2014-Oct-19 19:20N 01°16' E 103°45'2 0.1
2014-Oct-18 16:18N 01°18' E 103°44'1 1.4
2014-Oct-18 15:33N 01°17' E 103°45'6 1.0
2014-Oct-18 09:13N 01°13' E 103°40'4 5.2
2014-Oct-18 08:33N 01°10' E 103°41'6 5.6
2014-Oct-18 07:33N 01°10' E 103°47'8 7.6
2014-Oct-18 06:33N 01°13' E 103°54'7 7.0
2014-Oct-18 05:33N 01°16' E 104°00'7 7.2
2014-Oct-18 04:33N 01°17' E 104°08'  
2014-Oct-13 01:21N 22°17' E 114°06'33312.9
2014-Oct-11 23:33N 22°38' E 120°05'6 6.1
2014-Oct-11 22:33N 22°40' E 120°12'7 6.6
2014-Oct-11 21:33N 22°36' E 120°17'1 0.6
2014-Oct-11 19:16N 22°35' E 120°18'0 0.0
2014-Oct-11 18:16N 22°35' E 120°18'0 0.0
2014-Oct-11 13:10N 22°35' E 120°18'0 0.0
2014-Oct-11 08:16N 22°35' E 120°18'0 0.0
2014-Oct-11 07:28N 22°35' E 120°18'0 0.0
2014-Oct-11 06:10N 22°35' E 120°18'0 0.0
2014-Oct-11 05:28N 22°35' E 120°18'  

Dump ship's entire track history